Retour au catalogue

PEGASUS DEB

ActifPO
NORAD 27679·DEBRIS·🇺🇸 United States

Lancé May 19, 1994 depuis Vandenberg Space Force Base

Loading…

Prochains Passages (prochaines 24 heures)

TLE

FraisSource: Space-Track

Époque: Sep 13, 2026, 09:38 UTC

1 27679U 94029AEJ 26256.40207576  .00001209  00000-0  26325-3 0  9990
2 27679  81.9766 299.3582 0292614 330.4814  28.0116 14.34039129279197

Suivez PEGASUS DEB en temps réel avec AllMySat

Download on the App Store